Weather History for Monticello, AR

Change the Weather History Date:

Saturday, February 9, 2013

  Actual Average Record
Temperature  
Mean Temperature 42 °F -  
Max Temperature 54 °F 51 °F 84 °F (1954)
Min Temperature 30 °F 29 °F 8 °F (1967)
Degree Days  
Heating Degree Days 23    
Moisture  
Dew Point 36 °F    
Average Humidity 71    
Maximum Humidity 96    
Minimum Humidity 50    
Precipitation  
Precipitation 0.00 in - - ()
Sea Level Pressure  
Sea Level Pressure 30.16 in    
Wind  
Wind Speed 6 mph (East)    
Max Wind Speed 9 mph    
Max Gust Speed -    
Visibility 8 miles    
Events      
Averages and records for this station are not official NWS values.
T = Trace of Precipitation, MM = Missing Value Source: NWS Daily Summary

Daily Weather History Graph

Daily Weather History Graph

Search for Another Location

Airport:

Trip Planner

Search our weather history database for the weather conditions in past years. The results will help you decide how hot, cold, wet, or windy it might be!

Date:

Astronomy

Feb. 09, 2013 Rise Set
Actual Time 6:56 AM CST 5:46 PM CST
Civil Twilight 6:31 AM CST 6:11 PM CST
Nautical Twilight 6:01 AM CST 6:41 PM CST
Astronomical Twilight 5:32 AM CST 7:10 PM CST
Moon 6:09 AM CST (2/9) 5:27 PM CST (2/9)
Length of Visible Light 11h 40m
Length of Day
10h 49m
Waning Crescent, 0% of the Moon is Illuminated
Feb 9
Waning Crescent
Feb 10
New
Feb 17
First Quarter
Feb 25
Full
Mar 4
Last Quarter

Hourly Weather History & Observations

Time (CST) Temp. Windchill Dew Point Humidity Pressure Visibility Wind Dir Wind Speed Gust Speed Precip Events Conditions
12:53 AM 36.0 °F 30.3 °F 33.1 °F 89% 30.28 in 6.0 mi East 6.9 mph - N/A   Clear
1:53 AM 35.1 °F 30.1 °F 32.0 °F 89% 30.28 in 5.0 mi ENE 5.8 mph - N/A   Clear
2:53 AM 34.0 °F 29.8 °F 32.0 °F 92% 30.27 in 5.0 mi NE 4.6 mph - N/A   Clear
3:53 AM 33.1 °F 28.7 °F 30.9 °F 92% 30.27 in 5.0 mi NE 4.6 mph - N/A   Clear
4:53 AM 30.9 °F 24.3 °F 30.0 °F 96% 30.26 in 3.0 mi ENE 6.9 mph - N/A   Clear
5:53 AM 34.0 °F 28.0 °F 32.0 °F 92% 30.24 in 5.0 mi ENE 6.9 mph - N/A   Clear
6:53 AM 34.0 °F 28.0 °F 30.9 °F 89% 30.25 in 4.0 mi ENE 6.9 mph - N/A   Clear
7:53 AM 36.0 °F 30.3 °F 33.1 °F 89% 30.28 in 5.0 mi NE 6.9 mph - N/A   Clear
8:53 AM 39.0 °F 33.4 °F 34.0 °F 82% 30.28 in 8.0 mi East 8.1 mph - N/A   Clear
9:53 AM 43.0 °F 38.8 °F 35.1 °F 74% 30.28 in 10.0 mi ENE 6.9 mph - N/A   Clear
10:53 AM 46.0 °F 43.9 °F 34.0 °F 63% 30.27 in 10.0 mi Variable 4.6 mph - N/A   Clear
11:53 AM 50.0 °F - 35.1 °F 57% 30.21 in 10.0 mi ESE 8.1 mph - N/A   Clear
12:53 PM 52.0 °F - 34.0 °F 50% 30.17 in 10.0 mi ESE 9.2 mph - N/A   Clear
1:53 PM 52.0 °F - 35.1 °F 53% 30.15 in 10.0 mi East 6.9 mph - N/A   Mostly Cloudy
2:53 PM 54.0 °F - 37.0 °F 53% 30.12 in 10.0 mi ESE 6.9 mph - N/A   Clear
3:53 PM 53.1 °F - 37.9 °F 57% 30.10 in 10.0 mi ESE 6.9 mph - N/A   Scattered Clouds
4:51 PM 53.6 °F - 39.2 °F 58% 30.10 in 10.0 mi ESE 5.8 mph - N/A   Overcast
4:53 PM 53.1 °F - 39.0 °F 59% 30.10 in 10.0 mi Variable 3.5 mph - N/A   Overcast
5:26 PM 53.6 °F - 39.2 °F 58% 30.07 in 10.0 mi East 4.6 mph - N/A   Mostly Cloudy
5:53 PM 52.0 °F - 39.9 °F 63% 30.06 in 10.0 mi East 3.5 mph - N/A   Mostly Cloudy
6:06 PM 51.8 °F - 39.2 °F 62% 30.08 in 10.0 mi ESE 4.6 mph - N/A   Mostly Cloudy
6:35 PM 51.8 °F - 39.2 °F 62% 30.06 in 10.0 mi East 3.5 mph - N/A   Scattered Clouds
6:53 PM 51.1 °F - 41.0 °F 68% 30.06 in 10.0 mi East 3.5 mph - N/A   Scattered Clouds
7:53 PM 50.0 °F - 41.0 °F 71% 30.06 in 10.0 mi East 4.6 mph - N/A   Mostly Cloudy
8:53 PM 51.1 °F - 42.1 °F 71% 30.06 in 10.0 mi East 4.6 mph - N/A   Overcast
9:53 PM 51.1 °F - 41.0 °F 68% 30.04 in 10.0 mi East 3.5 mph - N/A   Overcast
10:53 PM 54.0 °F - 39.9 °F 59% 30.00 in 10.0 mi East 4.6 mph - N/A   Overcast
11:53 PM 54.0 °F - 42.1 °F 64% 30.01 in 10.0 mi ESE 5.8 mph - N/A   Overcast